Time,TemperatureF,DewpointF,PressureIn,WindDirection,WindDirectionDegrees,WindSpeedMPH,WindSpeedGustMPH,Humidity,HourlyPrecipIn,Conditions,Clouds,dailyrainin,SoftwareType,DateUTC
2013-03-21 00:00:00,22.5,10.7,30.08,NNW,329,6.0,15.0,60,0.00,,SKC,0.00,VWS V14.01,2013-03-21 04:00:00,
2013-03-21 00:01:00,22.5,10.7,30.08,WNW,288,7.0,10.0,60,0.00,,SKC,0.00,VWS V14.01,2013-03-21 04:01:00,
2013-03-21 00:06:00,22.4,11.0,30.08,North,358,13.0,14.0,61,0.00,,SKC,0.00,VWS V14.01,2013-03-21 04:06:00,
2013-03-21 00:11:00,22.4,10.3,30.08,NW,306,4.0,16.0,59,0.00,,SKC,0.00,VWS V14.01,2013-03-21 04:11:00,
2013-03-21 00:16:00,22.4,9.9,30.08,West,278,2.0,16.0,58,0.00,,SKC,0.00,VWS V14.01,2013-03-21 04:16:00,
2013-03-21 00:21:00,22.4,9.9,30.08,WNW,286,3.0,16.0,58,0.00,,SKC,0.00,VWS V14.01,2013-03-21 04:21:00,
2013-03-21 00:26:00,22.4,9.9,30.08,NW,309,3.0,16.0,58,0.00,,SKC,0.00,VWS V14.01,2013-03-21 04:26:00,
2013-03-21 00:31:00,22.4,9.9,30.08,WNW,290,4.0,4.0,58,0.00,,SKC,0.00,VWS V14.01,2013-03-21 04:31:00,
2013-03-21 00:36:00,22.4,9.9,30.08,West,278,3.0,13.0,58,0.00,,SKC,0.00,VWS V14.01,2013-03-21 04:36:00,
2013-03-21 00:41:00,22.2,9.7,30.08,West,274,15.0,17.0,58,0.00,,SKC,0.00,VWS V14.01,2013-03-21 04:41:00,
2013-03-21 00:46:00,22.1,10.0,30.08,West,269,7.0,17.0,59,0.00,,SKC,0.00,VWS V14.01,2013-03-21 04:46:00,
2013-03-21 00:51:00,21.9,10.2,30.08,West,276,9.0,17.0,60,0.00,,SKC,0.00,VWS V14.01,2013-03-21 04:51:00,
2013-03-21 00:57:00,21.9,10.2,30.08,WNW,287,4.0,17.0,60,0.00,,SKC,0.00,VWS V14.01,2013-03-21 04:57:00,
2013-03-21 01:02:00,21.9,10.9,30.08,WNW,299,7.0,18.0,62,0.00,,SKC,0.00,VWS V14.01,2013-03-21 05:02:00,
2013-03-21 01:07:00,21.8,11.2,30.08,West,278,2.0,18.0,63,0.00,,SKC,0.00,VWS V14.01,2013-03-21 05:07:00,
2013-03-21 01:12:00,21.6,11.0,30.08,WSW,238,10.0,18.0,63,0.00,,SKC,0.00,VWS V14.01,2013-03-21 05:12:00,
2013-03-21 01:17:00,21.4,10.8,30.08,West,267,10.0,18.0,63,0.00,,SKC,0.00,VWS V14.01,2013-03-21 05:17:00,
2013-03-21 01:22:00,21.4,10.8,30.08,West,262,3.0,18.0,63,0.00,,SKC,0.00,VWS V14.01,2013-03-21 05:22:00,
2013-03-21 01:27:00,21.4,10.8,30.08,NW,304,3.0,18.0,63,0.00,,SKC,0.00,VWS V14.01,2013-03-21 05:27:00,
2013-03-21 01:32:00,21.4,11.1,30.07,WSW,250,2.0,3.0,64,0.00,,SKC,0.00,VWS V14.01,2013-03-21 05:32:00,
2013-03-21 01:37:00,21.4,11.5,30.07,WNW,294,3.0,10.0,65,0.00,,SKC,0.00,VWS V14.01,2013-03-21 05:37:00,
2013-03-21 01:43:00,21.4,11.1,30.07,WNW,285,6.0,13.0,64,0.00,,SKC,0.00,VWS V14.01,2013-03-21 05:43:00,
2013-03-21 01:48:00,21.3,10.3,30.07,West,264,4.0,13.0,62,0.00,,SKC,0.00,VWS V14.01,2013-03-21 05:48:00,
2013-03-21 01:53:00,21.3,10.3,30.07,WNW,292,2.0,13.0,62,0.00,,SKC,0.00,VWS V14.01,2013-03-21 05:53:00,
2013-03-21 01:58:00,21.3,10.0,30.07,WNW,285,6.0,13.0,61,0.00,,SKC,0.00,VWS V14.01,2013-03-21 05:58:00,
2013-03-21 02:03:00,21.3,10.0,30.07,WNW,290,1.0,3.0,61,0.00,,SKC,0.00,VWS V14.01,2013-03-21 06:03:00,
2013-03-21 02:08:00,21.3,10.3,30.07,West,270,2.0,5.0,62,0.00,,SKC,0.00,VWS V14.01,2013-03-21 06:08:00,
2013-03-21 02:13:00,21.3,11.4,30.07,NW,306,1.0,7.0,65,0.00,,SKC,0.00,VWS V14.01,2013-03-21 06:13:00,
2013-03-21 02:18:00,21.1,12.2,30.06,WNW,283,2.0,7.0,68,0.00,,SKC,0.00,VWS V14.01,2013-03-21 06:18:00,
2013-03-21 02:23:00,21.1,12.9,30.06,WNW,303,3.0,7.0,70,0.00,,SKC,0.00,VWS V14.01,2013-03-21 06:23:00,
2013-03-21 02:28:00,21.0,13.4,30.06,West,272,1.0,10.0,72,0.00,,SKC,0.00,VWS V14.01,2013-03-21 06:28:00,
2013-03-21 02:33:00,20.8,13.8,30.07,WSW,248,1.0,5.0,74,0.00,,SKC,0.00,VWS V14.01,2013-03-21 06:33:00,
2013-03-21 02:38:00,20.6,13.9,30.07,West,281,3.0,7.0,75,0.00,,SKC,0.00,VWS V14.01,2013-03-21 06:38:00,
2013-03-21 02:43:00,20.5,13.9,30.07,WNW,284,3.0,12.0,75,0.00,,SKC,0.00,VWS V14.01,2013-03-21 06:43:00,
2013-03-21 02:48:00,20.3,13.7,30.06,West,260,0.0,12.0,75,0.00,,SKC,0.00,VWS V14.01,2013-03-21 06:48:00,
2013-03-21 02:53:00,20.0,13.4,30.06,WNW,289,2.0,12.0,75,0.00,,SKC,0.00,VWS V14.01,2013-03-21 06:53:00,
2013-03-21 02:59:00,19.9,13.3,30.06,WNW,284,5.0,12.0,75,0.00,,SKC,0.00,VWS V14.01,2013-03-21 06:59:00,
2013-03-21 03:04:00,19.9,13.3,30.06,West,265,1.0,6.0,75,0.00,,SKC,0.00,VWS V14.01,2013-03-21 07:04:00,
2013-03-21 03:09:00,19.7,13.1,30.06,West,273,2.0,8.0,75,0.00,,SKC,0.00,VWS V14.01,2013-03-21 07:09:00,
2013-03-21 03:14:00,19.7,13.1,30.06,West,278,8.0,10.0,75,0.00,,SKC,0.00,VWS V14.01,2013-03-21 07:14:00,
2013-03-21 03:19:00,19.7,12.8,30.06,West,277,2.0,10.0,74,0.00,,SKC,0.00,VWS V14.01,2013-03-21 07:19:00,
2013-03-21 03:24:00,19.7,12.5,30.06,WNW,291,5.0,10.0,73,0.00,,SKC,0.00,VWS V14.01,2013-03-21 07:24:00,
2013-03-21 03:29:00,19.7,12.5,30.06,NW,308,10.0,10.0,73,0.00,,SKC,0.00,VWS V14.01,2013-03-21 07:29:00,
2013-03-21 03:34:00,19.7,12.8,30.06,West,273,0.0,7.0,74,0.00,,SKC,0.00,VWS V14.01,2013-03-21 07:34:00,
2013-03-21 03:39:00,19.5,12.9,30.06,WSW,257,1.0,7.0,75,0.00,,SKC,0.00,VWS V14.01,2013-03-21 07:39:00,
2013-03-21 03:44:00,19.5,12.9,30.06,WNW,283,2.0,10.0,75,0.00,,SKC,0.00,VWS V14.01,2013-03-21 07:44:00,
2013-03-21 03:49:00,19.4,12.8,30.06,West,269,3.0,10.0,75,0.00,,SKC,0.00,VWS V14.01,2013-03-21 07:49:00,
2013-03-21 03:54:00,19.4,12.8,30.06,WSW,246,2.0,10.0,75,0.00,,SKC,0.00,VWS V14.01,2013-03-21 07:54:00,
2013-03-21 03:59:00,19.4,12.8,30.06,NW,315,4.0,10.0,75,0.00,,SKC,0.00,VWS V14.01,2013-03-21 07:59:00,
2013-03-21 04:04:00,19.4,12.5,30.05,WNW,291,10.0,12.0,74,0.00,,SKC,0.00,VWS V14.01,2013-03-21 08:04:00,
2013-03-21 04:10:00,19.4,12.5,30.05,WNW,292,2.0,12.0,74,0.00,,SKC,0.00,VWS V14.01,2013-03-21 08:10:00,
2013-03-21 04:15:00,19.4,12.5,30.05,West,275,5.0,12.0,74,0.00,,SKC,0.00,VWS V14.01,2013-03-21 08:15:00,
2013-03-21 04:20:00,19.4,12.2,30.05,WNW,295,3.0,12.0,73,0.00,,SKC,0.00,VWS V14.01,2013-03-21 08:20:00,
2013-03-21 04:25:00,19.4,12.2,30.05,WNW,288,0.0,12.0,73,0.00,,SKC,0.00,VWS V14.01,2013-03-21 08:25:00,
2013-03-21 04:30:00,19.2,12.0,30.05,West,264,2.0,12.0,73,0.00,,SKC,0.00,VWS V14.01,2013-03-21 08:30:00,
2013-03-21 04:35:00,19.2,12.0,30.05,West,276,6.0,8.0,73,0.00,,SKC,0.00,VWS V14.01,2013-03-21 08:35:00,
2013-03-21 04:40:00,19.2,11.7,30.05,West,262,0.0,11.0,72,0.00,,SKC,0.00,VWS V14.01,2013-03-21 08:40:00,
2013-03-21 04:45:00,19.1,11.6,30.05,WNW,298,2.0,11.0,72,0.00,,SKC,0.00,VWS V14.01,2013-03-21 08:45:00,
2013-03-21 04:50:00,19.1,11.6,30.05,West,273,1.0,11.0,72,0.00,,SKC,0.00,VWS V14.01,2013-03-21 08:50:00,
2013-03-21 04:55:00,19.1,11.6,30.05,WNW,288,2.0,11.0,72,0.00,,SKC,0.00,VWS V14.01,2013-03-21 08:55:00,
2013-03-21 05:00:00,19.1,11.6,30.04,West,281,6.0,11.0,72,0.00,,SKC,0.00,VWS V14.01,2013-03-21 09:00:00,
2013-03-21 05:05:00,19.1,11.6,30.04,NW,309,2.0,11.0,72,0.00,,SKC,0.00,VWS V14.01,2013-03-21 09:05:00,
2013-03-21 05:10:00,19.1,11.6,30.04,NW,305,0.0,11.0,72,0.00,,SKC,0.00,VWS V14.01,2013-03-21 09:10:00,
2013-03-21 05:15:00,19.1,11.6,30.04,NNW,335,3.0,11.0,72,0.00,,SKC,0.00,VWS V14.01,2013-03-21 09:15:00,
2013-03-21 05:21:00,19.1,11.6,30.04,WNW,282,2.0,11.0,72,0.00,,SKC,0.00,VWS V14.01,2013-03-21 09:21:00,
2013-03-21 05:26:00,19.1,11.6,30.04,WNW,300,3.0,11.0,72,0.00,,SKC,0.00,VWS V14.01,2013-03-21 09:26:00,
2013-03-21 05:31:00,18.9,11.4,30.04,WNW,300,3.0,3.0,72,0.00,,SKC,0.00,VWS V14.01,2013-03-21 09:31:00,
2013-03-21 05:36:00,18.8,11.3,30.04,WNW,288,5.0,12.0,72,0.00,,SKC,0.00,VWS V14.01,2013-03-21 09:36:00,
2013-03-21 05:41:00,18.6,11.1,30.04,WNW,296,3.0,12.0,72,0.00,,SKC,0.00,VWS V14.01,2013-03-21 09:41:00,
2013-03-21 05:46:00,18.4,10.6,30.04,WNW,291,2.0,12.0,71,0.00,,SKC,0.00,VWS V14.01,2013-03-21 09:46:00,
2013-03-21 05:51:00,18.3,10.8,30.04,WNW,299,1.0,12.0,72,0.00,,SKC,0.00,VWS V14.01,2013-03-21 09:51:00,
2013-03-21 05:56:00,18.3,10.8,30.04,West,274,2.0,12.0,72,0.00,,SKC,0.00,VWS V14.01,2013-03-21 09:56:00,
2013-03-21 06:01:00,18.1,10.6,30.05,WNW,296,3.0,3.0,72,0.00,,SKC,0.00,VWS V14.01,2013-03-21 10:01:00,
2013-03-21 06:06:00,18.0,10.5,30.05,WNW,285,1.0,8.0,72,0.00,,SKC,0.00,VWS V14.01,2013-03-21 10:06:00,
2013-03-21 06:11:00,18.0,10.5,30.05,NW,314,1.0,8.0,72,0.00,,SKC,0.00,VWS V14.01,2013-03-21 10:11:00,
2013-03-21 06:16:00,17.8,10.3,30.05,WNW,289,3.0,10.0,72,0.00,,SKC,0.00,VWS V14.01,2013-03-21 10:16:00,
2013-03-21 06:21:00,17.7,10.2,30.05,WNW,296,2.0,10.0,72,0.00,,SKC,0.00,VWS V14.01,2013-03-21 10:21:00,
2013-03-21 06:26:00,17.7,10.2,30.05,WNW,291,1.0,10.0,72,0.00,,SKC,0.00,VWS V14.01,2013-03-21 10:26:00,
2013-03-21 06:31:00,17.7,10.2,30.06,WNW,286,4.0,4.0,72,0.00,,SKC,0.00,VWS V14.01,2013-03-21 10:31:00,
2013-03-21 06:36:00,17.7,10.2,30.06,WNW,299,5.0,9.0,72,0.00,,SKC,0.00,VWS V14.01,2013-03-21 10:36:00,
2013-03-21 06:41:00,17.7,10.2,30.06,West,259,0.0,9.0,72,0.00,,SKC,0.00,VWS V14.01,2013-03-21 10:41:00,
2013-03-21 06:46:00,17.7,10.2,30.06,West,276,4.0,10.0,72,0.00,,SKC,0.00,VWS V14.01,2013-03-21 10:46:00,
2013-03-21 06:52:00,17.5,10.0,30.06,West,272,3.0,10.0,72,0.00,,SKC,0.00,VWS V14.01,2013-03-21 10:52:00,
2013-03-21 06:57:00,17.5,10.0,30.06,NW,326,1.0,10.0,72,0.00,,SKC,0.00,VWS V14.01,2013-03-21 10:57:00,
2013-03-21 07:02:00,17.5,10.0,30.06,WNW,291,0.0,1.0,72,0.00,,SKC,0.00,VWS V14.01,2013-03-21 11:02:00,
2013-03-21 07:07:00,17.3,9.5,30.06,North,349,0.0,7.0,71,0.00,,SKC,0.00,VWS V14.01,2013-03-21 11:07:00,
2013-03-21 07:12:00,17.2,9.4,30.06,West,277,1.0,7.0,71,0.00,,SKC,0.00,VWS V14.01,2013-03-21 11:12:00,
2013-03-21 07:17:00,17.2,9.4,30.07,NW,326,1.0,7.0,71,0.00,,SKC,0.00,VWS V14.01,2013-03-21 11:17:00,
2013-03-21 07:22:00,17.0,9.2,30.07,NW,326,1.0,7.0,71,0.00,,SKC,0.00,VWS V14.01,2013-03-21 11:22:00,
2013-03-21 07:27:00,17.0,9.2,30.07,WNW,283,2.0,7.0,71,0.00,,SKC,0.00,VWS V14.01,2013-03-21 11:27:00,
2013-03-21 07:32:00,16.9,9.1,30.07,West,266,2.0,3.0,71,0.00,,SKC,0.00,VWS V14.01,2013-03-21 11:32:00,
2013-03-21 07:37:00,16.7,8.9,30.07,West,273,2.0,4.0,71,0.00,,SKC,0.00,VWS V14.01,2013-03-21 11:37:00,
2013-03-21 07:42:00,16.5,8.4,30.07,WNW,285,1.0,4.0,70,0.00,,SKC,0.00,VWS V14.01,2013-03-21 11:42:00,
2013-03-21 07:47:00,16.5,8.4,30.07,West,264,4.0,5.0,70,0.00,,SKC,0.00,VWS V14.01,2013-03-21 11:47:00,
2013-03-21 07:53:00,16.4,8.3,30.07,WNW,297,2.0,5.0,70,0.00,,SKC,0.00,VWS V14.01,2013-03-21 11:53:00,
2013-03-21 07:58:00,16.2,8.1,30.07,West,271,5.0,6.0,70,0.00,,SKC,0.00,VWS V14.01,2013-03-21 11:58:00,
2013-03-21 08:03:00,16.2,8.5,30.07,WSW,255,1.0,7.0,71,0.00,,SKC,0.00,VWS V14.01,2013-03-21 12:03:00,
2013-03-21 08:08:00,16.2,8.1,30.07,West,269,3.0,7.0,70,0.00,,SKC,0.00,VWS V14.01,2013-03-21 12:08:00,
2013-03-21 08:13:00,16.2,8.5,30.07,West,259,1.0,7.0,71,0.00,,SKC,0.00,VWS V14.01,2013-03-21 12:13:00,
2013-03-21 08:18:00,16.2,8.1,30.08,WNW,297,2.0,7.0,70,0.00,,SKC,0.00,VWS V14.01,2013-03-21 12:18:00,
2013-03-21 08:23:00,16.2,8.1,30.08,West,281,3.0,7.0,70,0.00,,SKC,0.00,VWS V14.01,2013-03-21 12:23:00,
2013-03-21 08:28:00,16.2,8.1,30.08,West,271,0.0,9.0,70,0.00,,SKC,0.00,VWS V14.01,2013-03-21 12:28:00,
2013-03-21 08:33:00,16.4,8.3,30.09,NW,314,6.0,10.0,70,0.00,,SKC,0.00,VWS V14.01,2013-03-21 12:33:00,
2013-03-21 08:38:00,16.4,8.3,30.09,NW,304,3.0,12.0,70,0.00,,SKC,0.00,VWS V14.01,2013-03-21 12:38:00,
2013-03-21 08:43:00,16.5,8.1,30.09,NNW,345,6.0,12.0,69,0.00,,SKC,0.00,VWS V14.01,2013-03-21 12:43:00,
2013-03-21 08:48:00,16.7,8.0,30.09,West,274,6.0,12.0,68,0.00,,SKC,0.00,VWS V14.01,2013-03-21 12:48:00,
2013-03-21 08:53:00,17.0,7.6,30.09,West,262,9.0,12.0,66,0.00,,SKC,0.00,VWS V14.01,2013-03-21 12:53:00,
2013-03-21 08:58:00,17.2,7.8,30.09,WNW,292,1.0,12.0,66,0.00,,SKC,0.00,VWS V14.01,2013-03-21 12:58:00,
2013-03-21 09:03:00,17.5,7.8,30.09,West,281,1.0,2.0,65,0.00,,SKC,0.00,VWS V14.01,2013-03-21 13:03:00,
2013-03-21 09:08:00,17.8,7.7,30.09,WNW,288,2.0,7.0,64,0.00,,SKC,0.00,VWS V14.01,2013-03-21 13:08:00,
2013-03-21 09:13:00,17.8,7.3,30.09,WNW,301,0.0,7.0,63,0.00,,SKC,0.00,VWS V14.01,2013-03-21 13:13:00,
2013-03-21 09:18:00,18.0,7.2,30.10,WNW,288,3.0,7.0,62,0.00,,SKC,0.00,VWS V14.01,2013-03-21 13:18:00,
2013-03-21 09:23:00,18.1,7.3,30.10,West,273,10.0,11.0,62,0.00,,SKC,0.00,VWS V14.01,2013-03-21 13:23:00,
2013-03-21 09:28:00,18.4,7.6,30.10,NW,307,11.0,11.0,62,0.00,,SKC,0.00,VWS V14.01,2013-03-21 13:28:00,
2013-03-21 09:33:00,18.6,7.4,30.09,WNW,297,2.0,11.0,61,0.00,,SKC,0.00,VWS V14.01,2013-03-21 13:33:00,
2013-03-21 09:39:00,19.1,7.9,30.09,WNW,291,11.0,11.0,61,0.00,,SKC,0.00,VWS V14.01,2013-03-21 13:39:00,
2013-03-21 09:44:00,19.2,7.2,30.09,West,266,5.0,11.0,59,0.00,,SKC,0.00,VWS V14.01,2013-03-21 13:44:00,
2013-03-21 09:49:00,19.4,7.1,30.10,WSW,243,5.0,11.0,58,0.00,,SKC,0.00,VWS V14.01,2013-03-21 13:49:00,
2013-03-21 09:54:00,19.5,7.1,30.10,WNW,300,3.0,11.0,58,0.00,,SKC,0.00,VWS V14.01,2013-03-21 13:54:00,
2013-03-21 09:59:00,19.7,6.6,30.10,West,268,1.0,11.0,56,0.00,,SKC,0.00,VWS V14.01,2013-03-21 13:59:00,
2013-03-21 10:04:00,20.0,6.8,30.09,West,269,3.0,12.0,56,0.00,,SKC,0.00,VWS V14.01,2013-03-21 14:04:00,
2013-03-21 10:09:00,20.5,8.1,30.09,NW,307,1.0,12.0,58,0.00,,SKC,0.00,VWS V14.01,2013-03-21 14:09:00,
2013-03-21 10:14:00,20.5,7.7,30.09,WNW,294,3.0,12.0,57,0.00,,SKC,0.00,VWS V14.01,2013-03-21 14:14:00,
2013-03-21 10:19:00,20.6,7.4,30.09,NW,304,3.0,12.0,56,0.00,,SKC,0.00,VWS V14.01,2013-03-21 14:19:00,
2013-03-21 10:24:00,20.6,7.0,30.09,WNW,287,2.0,12.0,55,0.00,,SKC,0.00,VWS V14.01,2013-03-21 14:24:00,
2013-03-21 10:29:00,21.6,9.1,30.09,WSW,245,3.0,12.0,58,0.00,,SKC,0.00,VWS V14.01,2013-03-21 14:29:00,
2013-03-21 10:34:00,21.4,8.1,30.10,WSW,242,3.0,9.0,56,0.00,,SKC,0.00,VWS V14.01,2013-03-21 14:34:00,
2013-03-21 10:39:00,21.4,7.8,30.10,WSW,237,4.0,10.0,55,0.00,,SKC,0.00,VWS V14.01,2013-03-21 14:39:00,
2013-03-21 10:44:00,21.3,7.3,30.10,WNW,283,3.0,10.0,54,0.00,,SKC,0.00,VWS V14.01,2013-03-21 14:44:00,
2013-03-21 10:50:00,22.1,7.6,30.10,WSW,250,6.0,10.0,53,0.00,,SKC,0.00,VWS V14.01,2013-03-21 14:50:00,
2013-03-21 10:55:00,22.7,9.4,30.10,NW,309,5.0,10.0,56,0.00,,SKC,0.00,VWS V14.01,2013-03-21 14:55:00,
2013-03-21 11:00:00,22.7,8.6,30.09,NNW,329,2.0,13.0,54,0.00,,SKC,0.00,VWS V14.01,2013-03-21 15:00:00,
2013-03-21 11:05:00,23.0,8.0,30.09,WNW,291,2.0,10.0,52,0.00,,SKC,0.00,VWS V14.01,2013-03-21 15:05:00,
2013-03-21 11:10:00,22.9,7.9,30.09,NW,305,0.0,10.0,52,0.00,,SKC,0.00,VWS V14.01,2013-03-21 15:10:00,
2013-03-21 11:15:00,23.3,8.3,30.09,NW,314,3.0,13.0,52,0.00,,SKC,0.00,VWS V14.01,2013-03-21 15:15:00,
2013-03-21 11:20:00,23.5,7.6,30.09,WNW,288,3.0,13.0,50,0.00,,SKC,0.00,VWS V14.01,2013-03-21 15:20:00,
2013-03-21 11:25:00,24.1,8.6,30.09,West,262,5.0,13.0,51,0.00,,SKC,0.00,VWS V14.01,2013-03-21 15:25:00,
2013-03-21 11:30:00,23.9,8.4,30.10,WNW,295,4.0,13.0,51,0.00,,SKC,0.00,VWS V14.01,2013-03-21 15:30:00,
2013-03-21 11:35:00,24.1,7.7,30.10,SW,226,4.0,9.0,49,0.00,,SKC,0.00,VWS V14.01,2013-03-21 15:35:00,
2013-03-21 11:40:00,24.7,9.6,30.10,WNW,302,3.0,12.0,52,0.00,,SKC,0.00,VWS V14.01,2013-03-21 15:40:00,
2013-03-21 11:46:00,24.4,7.5,30.10,NW,311,5.0,12.0,48,0.00,,SKC,0.00,VWS V14.01,2013-03-21 15:46:00,
2013-03-21 11:51:00,24.4,7.5,30.10,NW,326,2.0,12.0,48,0.00,,SKC,0.00,VWS V14.01,2013-03-21 15:51:00,
2013-03-21 11:56:00,25.4,8.9,30.10,West,266,5.0,12.0,49,0.00,,SKC,0.00,VWS V14.01,2013-03-21 15:56:00,
2013-03-21 12:01:00,24.8,7.9,30.10,WNW,295,6.0,6.0,48,0.00,,SKC,0.00,VWS V14.01,2013-03-21 16:01:00,
2013-03-21 12:06:00,25.4,8.9,30.10,West,260,4.0,14.0,49,0.00,,SKC,0.00,VWS V14.01,2013-03-21 16:06:00,
2013-03-21 12:12:00,25.8,7.4,30.10,WSW,248,3.0,14.0,45,0.00,,SKC,0.00,VWS V14.01,2013-03-21 16:12:00,
2013-03-21 12:17:00,26.7,10.1,30.11,WNW,294,2.0,14.0,49,0.00,,SKC,0.00,VWS V14.01,2013-03-21 16:17:00,
2013-03-21 12:22:00,26.4,7.5,30.11,WNW,283,2.0,14.0,44,0.00,,SKC,0.00,VWS V14.01,2013-03-21 16:22:00,
2013-03-21 12:27:00,26.3,7.9,30.11,NW,306,3.0,14.0,45,0.00,,SKC,0.00,VWS V14.01,2013-03-21 16:27:00,
2013-03-21 12:32:00,26.1,8.2,30.11,WNW,293,9.0,11.0,46,0.00,,SKC,0.00,VWS V14.01,2013-03-21 16:32:00,
2013-03-21 12:37:00,26.9,9.4,30.11,SW,234,5.0,11.0,47,0.00,,SKC,0.00,VWS V14.01,2013-03-21 16:37:00,
2013-03-21 12:42:00,26.9,8.9,30.11,West,279,4.0,11.0,46,0.00,,SKC,0.00,VWS V14.01,2013-03-21 16:42:00,
2013-03-21 12:47:00,26.6,8.1,30.11,NW,305,7.0,11.0,45,0.00,,SKC,0.00,VWS V14.01,2013-03-21 16:47:00,
2013-03-21 12:52:00,27.0,8.5,30.11,WNW,300,5.0,12.0,45,0.00,,SKC,0.00,VWS V14.01,2013-03-21 16:52:00,
2013-03-21 12:58:00,26.9,7.9,30.11,West,269,2.0,12.0,44,0.00,,SKC,0.00,VWS V14.01,2013-03-21 16:58:00,
2013-03-21 13:03:00,27.2,9.6,30.10,WNW,300,5.0,8.0,47,0.00,,SKC,0.00,VWS V14.01,2013-03-21 17:03:00,
2013-03-21 13:08:00,26.9,7.9,30.10,West,271,7.0,11.0,44,0.00,,SKC,0.00,VWS V14.01,2013-03-21 17:08:00,
2013-03-21 13:13:00,27.3,8.8,30.10,SW,229,3.0,11.0,45,0.00,,SKC,0.00,VWS V14.01,2013-03-21 17:13:00,
2013-03-21 13:18:00,28.2,10.1,30.10,West,278,2.0,11.0,46,0.00,,SKC,0.00,VWS V14.01,2013-03-21 17:18:00,
2013-03-21 13:23:00,28.5,9.9,30.10,NW,311,3.0,11.0,45,0.00,,SKC,0.00,VWS V14.01,2013-03-21 17:23:00,
2013-03-21 13:28:00,28.4,10.3,30.10,West,261,2.0,12.0,46,0.00,,SKC,0.00,VWS V14.01,2013-03-21 17:28:00,
2013-03-21 13:33:00,28.7,9.6,30.09,West,264,3.0,9.0,44,0.00,,SKC,0.00,VWS V14.01,2013-03-21 17:33:00,
2013-03-21 13:38:00,28.5,8.9,30.09,WNW,288,3.0,11.0,43,0.00,,SKC,0.00,VWS V14.01,2013-03-21 17:38:00,
2013-03-21 13:43:00,28.4,8.8,30.09,NNW,340,5.0,11.0,43,0.00,,SKC,0.00,VWS V14.01,2013-03-21 17:43:00,
2013-03-21 13:48:00,28.4,9.8,30.09,WNW,302,3.0,11.0,45,0.00,,SKC,0.00,VWS V14.01,2013-03-21 17:48:00,
2013-03-21 13:53:00,29.0,9.3,30.09,WSW,251,2.0,11.0,43,0.00,,SKC,0.00,VWS V14.01,2013-03-21 17:53:00,
2013-03-21 13:58:00,28.1,9.0,30.09,West,277,3.0,11.0,44,0.00,,SKC,0.00,VWS V14.01,2013-03-21 17:58:00,
2013-03-21 14:04:00,28.1,8.5,30.09,SSW,205,2.0,5.0,43,0.00,,SKC,0.00,VWS V14.01,2013-03-21 18:04:00,
2013-03-21 14:09:00,28.5,8.3,30.09,WSW,256,3.0,13.0,42,0.00,,SKC,0.00,VWS V14.01,2013-03-21 18:09:00,
2013-03-21 14:14:00,29.1,8.4,30.09,WNW,285,2.0,13.0,41,0.00,,SKC,0.00,VWS V14.01,2013-03-21 18:14:00,
2013-03-21 14:19:00,29.7,9.4,30.09,West,271,9.0,13.0,42,0.00,,SKC,0.00,VWS V14.01,2013-03-21 18:19:00,
2013-03-21 14:24:00,29.5,8.7,30.09,WSW,237,4.0,13.0,41,0.00,,SKC,0.00,VWS V14.01,2013-03-21 18:24:00,
2013-03-21 14:29:00,29.5,10.3,30.09,WSW,256,0.0,13.0,44,0.00,,SKC,0.00,VWS V14.01,2013-03-21 18:29:00,
2013-03-21 14:34:00,30.3,11.5,30.08,WSW,257,3.0,12.0,45,0.00,,SKC,0.00,VWS V14.01,2013-03-21 18:34:00,
2013-03-21 14:39:00,30.1,9.8,30.08,NNW,340,2.0,12.0,42,0.00,,SKC,0.00,VWS V14.01,2013-03-21 18:39:00,
2013-03-21 14:44:00,30.0,8.6,30.08,WNW,294,3.0,12.0,40,0.00,,SKC,0.00,VWS V14.01,2013-03-21 18:44:00,
2013-03-21 14:49:00,30.6,10.8,30.08,WNW,297,0.0,12.0,43,0.00,,SKC,0.00,VWS V14.01,2013-03-21 18:49:00,
2013-03-21 14:54:00,30.7,10.3,30.08,WNW,302,3.0,12.0,42,0.00,,SKC,0.00,VWS V14.01,2013-03-21 18:54:00,
2013-03-21 14:59:00,31.5,10.5,30.08,WNW,302,1.0,12.0,41,0.00,,SKC,0.00,VWS V14.01,2013-03-21 18:59:00,
2013-03-21 15:04:00,31.0,10.1,30.07,WNW,294,3.0,10.0,41,0.00,,SKC,0.00,VWS V14.01,2013-03-21 19:04:00,
2013-03-21 15:09:00,30.7,9.8,30.07,West,264,3.0,10.0,41,0.00,,SKC,0.00,VWS V14.01,2013-03-21 19:09:00,
2013-03-21 15:14:00,30.9,10.0,30.07,NW,311,4.0,10.0,41,0.00,,SKC,0.00,VWS V14.01,2013-03-21 19:14:00,
2013-03-21 15:20:00,31.2,10.2,30.07,WSW,246,6.0,12.0,41,0.00,,SKC,0.00,VWS V14.01,2013-03-21 19:20:00,
2013-03-21 15:25:00,31.6,11.2,30.07,WNW,300,5.0,12.0,42,0.00,,SKC,0.00,VWS V14.01,2013-03-21 19:25:00,
2013-03-21 15:30:00,31.8,10.8,30.07,West,259,1.0,12.0,41,0.00,,SKC,0.00,VWS V14.01,2013-03-21 19:30:00,
2013-03-21 15:35:00,31.9,10.3,30.07,West,266,4.0,15.0,40,0.00,,SKC,0.00,VWS V14.01,2013-03-21 19:35:00,
2013-03-21 15:40:00,31.3,9.8,30.07,WNW,300,6.0,15.0,40,0.00,,SKC,0.00,VWS V14.01,2013-03-21 19:40:00,
2013-03-21 15:45:00,31.2,9.7,30.07,WSW,243,5.0,15.0,40,0.00,,SKC,0.00,VWS V14.01,2013-03-21 19:45:00,
2013-03-21 15:50:00,31.3,10.3,30.07,SW,230,2.0,15.0,41,0.00,,SKC,0.00,VWS V14.01,2013-03-21 19:50:00,
2013-03-21 15:55:00,32.1,9.9,30.07,WSW,251,4.0,15.0,39,0.00,,SKC,0.00,VWS V14.01,2013-03-21 19:55:00,
2013-03-21 16:00:00,32.1,9.9,30.06,WNW,294,3.0,15.0,39,0.00,,SKC,0.00,VWS V14.01,2013-03-21 20:00:00,
2013-03-21 16:05:00,32.2,11.7,30.06,West,260,3.0,13.0,42,0.00,,SKC,0.00,VWS V14.01,2013-03-21 20:05:00,
2013-03-21 16:10:00,32.4,10.8,30.06,West,261,0.0,13.0,40,0.00,,SKC,0.00,VWS V14.01,2013-03-21 20:10:00,
2013-03-21 16:15:00,32.5,9.7,30.06,West,264,4.0,13.0,38,0.00,,SKC,0.00,VWS V14.01,2013-03-21 20:15:00,
2013-03-21 16:20:00,32.4,10.8,30.06,West,259,2.0,13.0,40,0.00,,SKC,0.00,VWS V14.01,2013-03-21 20:20:00,
2013-03-21 16:25:00,31.9,10.3,30.06,WNW,300,2.0,13.0,40,0.00,,SKC,0.00,VWS V14.01,2013-03-21 20:25:00,
2013-03-21 16:30:00,31.8,9.7,30.06,West,262,2.0,13.0,39,0.00,,SKC,0.00,VWS V14.01,2013-03-21 20:30:00,
2013-03-21 16:35:00,33.2,10.9,30.06,SSW,210,7.0,15.0,39,0.00,,SKC,0.00,VWS V14.01,2013-03-21 20:35:00,
2013-03-21 16:40:00,32.2,10.6,30.06,West,266,4.0,15.0,40,0.00,,SKC,0.00,VWS V14.01,2013-03-21 20:40:00,
2013-03-21 16:46:00,32.4,10.2,30.06,NNW,333,3.0,15.0,39,0.00,,SKC,0.00,VWS V14.01,2013-03-21 20:46:00,
2013-03-21 16:51:00,32.8,10.6,30.06,West,280,4.0,15.0,39,0.00,,SKC,0.00,VWS V14.01,2013-03-21 20:51:00,
2013-03-21 16:56:00,32.9,11.8,30.06,WNW,297,4.0,15.0,41,0.00,,SKC,0.00,VWS V14.01,2013-03-21 20:56:00,
2013-03-21 17:01:00,32.8,10.6,30.06,West,270,3.0,15.0,39,0.00,,SKC,0.00,VWS V14.01,2013-03-21 21:01:00,
2013-03-21 17:06:00,32.5,9.1,30.06,WSW,252,4.0,11.0,37,0.00,,SKC,0.00,VWS V14.01,2013-03-21 21:06:00,
2013-03-21 17:11:00,33.1,10.3,30.06,West,269,10.0,11.0,38,0.00,,SKC,0.00,VWS V14.01,2013-03-21 21:11:00,
2013-03-21 17:17:00,32.9,9.5,30.06,WNW,295,4.0,13.0,37,0.00,,SKC,0.00,VWS V14.01,2013-03-21 21:17:00,
2013-03-21 17:22:00,33.2,9.8,30.06,West,260,9.0,13.0,37,0.00,,SKC,0.00,VWS V14.01,2013-03-21 21:22:00,
2013-03-21 17:27:00,33.4,10.5,30.06,West,277,7.0,13.0,38,0.00,,SKC,0.00,VWS V14.01,2013-03-21 21:27:00,
2013-03-21 17:32:00,33.4,9.9,30.05,West,274,2.0,9.0,37,0.00,,SKC,0.00,VWS V14.01,2013-03-21 21:32:00,
2013-03-21 17:37:00,33.5,12.3,30.05,WSW,244,6.0,12.0,41,0.00,,SKC,0.00,VWS V14.01,2013-03-21 21:37:00,
2013-03-21 17:42:00,33.5,10.6,30.05,WSW,243,2.0,14.0,38,0.00,,SKC,0.00,VWS V14.01,2013-03-21 21:42:00,
2013-03-21 17:47:00,33.2,10.9,30.05,WSW,248,1.0,14.0,39,0.00,,SKC,0.00,VWS V14.01,2013-03-21 21:47:00,
2013-03-21 17:52:00,32.5,9.7,30.05,West,266,5.0,14.0,38,0.00,,SKC,0.00,VWS V14.01,2013-03-21 21:52:00,
2013-03-21 17:57:00,32.4,9.6,30.05,West,276,4.0,14.0,38,0.00,,SKC,0.00,VWS V14.01,2013-03-21 21:57:00,
2013-03-21 18:02:00,32.9,10.1,30.05,West,264,4.0,8.0,38,0.00,,SKC,0.00,VWS V14.01,2013-03-21 22:02:00,
2013-03-21 18:07:00,32.8,11.1,30.05,West,270,5.0,9.0,40,0.00,,SKC,0.00,VWS V14.01,2013-03-21 22:07:00,
2013-03-21 18:12:00,33.1,10.9,30.05,NW,319,3.0,9.0,39,0.00,,SKC,0.00,VWS V14.01,2013-03-21 22:12:00,
2013-03-21 18:17:00,32.7,9.9,30.05,NW,305,3.0,10.0,38,0.00,,SKC,0.00,VWS V14.01,2013-03-21 22:17:00,
2013-03-21 18:22:00,32.5,10.3,30.05,WNW,288,1.0,13.0,39,0.00,,SKC,0.00,VWS V14.01,2013-03-21 22:22:00,
2013-03-21 18:27:00,32.1,9.4,30.05,West,271,2.0,13.0,38,0.00,,SKC,0.00,VWS V14.01,2013-03-21 22:27:00,
2013-03-21 18:32:00,32.1,10.5,30.05,WNW,286,2.0,2.0,40,0.00,,SKC,0.00,VWS V14.01,2013-03-21 22:32:00,
2013-03-21 18:37:00,31.9,10.3,30.05,West,259,1.0,7.0,40,0.00,,SKC,0.00,VWS V14.01,2013-03-21 22:37:00,
2013-03-21 18:42:00,31.8,10.8,30.05,West,276,2.0,7.0,41,0.00,,SKC,0.00,VWS V14.01,2013-03-21 22:42:00,
2013-03-21 18:47:00,31.9,11.4,30.05,West,269,2.0,7.0,42,0.00,,SKC,0.00,VWS V14.01,2013-03-21 22:47:00,
2013-03-21 18:53:00,32.1,10.5,30.05,WNW,293,0.0,9.0,40,0.00,,SKC,0.00,VWS V14.01,2013-03-21 22:53:00,
2013-03-21 18:58:00,31.9,10.3,30.05,WSW,248,2.0,9.0,40,0.00,,SKC,0.00,VWS V14.01,2013-03-21 22:58:00,
2013-03-21 19:03:00,32.1,9.9,30.06,WNW,298,2.0,8.0,39,0.00,,SKC,0.00,VWS V14.01,2013-03-21 23:03:00,
2013-03-21 19:08:00,32.2,10.6,30.06,WSW,255,3.0,11.0,40,0.00,,SKC,0.00,VWS V14.01,2013-03-21 23:08:00,
2013-03-21 19:13:00,32.2,10.6,30.06,WSW,252,7.0,11.0,40,0.00,,SKC,0.00,VWS V14.01,2013-03-21 23:13:00,
2013-03-21 19:18:00,31.9,9.8,30.06,West,269,0.0,11.0,39,0.00,,SKC,0.00,VWS V14.01,2013-03-21 23:18:00,
2013-03-21 19:23:00,31.9,10.9,30.06,West,264,0.0,11.0,41,0.00,,SKC,0.00,VWS V14.01,2013-03-21 23:23:00,
2013-03-21 19:28:00,31.9,10.3,30.06,SW,230,2.0,13.0,40,0.00,,SKC,0.00,VWS V14.01,2013-03-21 23:28:00,
2013-03-21 19:33:00,31.8,10.8,30.06,NW,304,0.0,4.0,41,0.00,,SKC,0.00,VWS V14.01,2013-03-21 23:33:00,
2013-03-21 19:38:00,31.6,10.6,30.06,WNW,290,1.0,4.0,41,0.00,,SKC,0.00,VWS V14.01,2013-03-21 23:38:00,
2013-03-21 19:43:00,31.5,10.5,30.06,WSW,250,2.0,5.0,41,0.00,,SKC,0.00,VWS V14.01,2013-03-21 23:43:00,
2013-03-21 19:48:00,31.3,10.3,30.06,WNW,283,3.0,9.0,41,0.00,,SKC,0.00,VWS V14.01,2013-03-21 23:48:00,
2013-03-21 19:53:00,31.3,10.9,30.06,West,281,1.0,9.0,42,0.00,,SKC,0.00,VWS V14.01,2013-03-21 23:53:00,
2013-03-21 19:58:00,31.2,10.8,30.06,West,280,0.0,9.0,42,0.00,,SKC,0.00,VWS V14.01,2013-03-21 23:58:00,
2013-03-21 20:04:00,31.0,11.1,30.07,West,271,0.0,1.0,43,0.00,,SKC,0.00,VWS V14.01,2013-03-22 00:04:00,
2013-03-21 20:09:00,30.7,10.9,30.07,WSW,252,0.0,3.0,43,0.00,,SKC,0.00,VWS V14.01,2013-03-22 00:09:00,
2013-03-21 20:14:00,30.6,11.3,30.07,WSW,252,0.0,3.0,44,0.00,,SKC,0.00,VWS V14.01,2013-03-22 00:14:00,
2013-03-21 20:19:00,30.4,11.6,30.07,WSW,253,1.0,3.0,45,0.00,,SKC,0.00,VWS V14.01,2013-03-22 00:19:00,
2013-03-21 20:24:00,30.3,11.5,30.07,WSW,252,1.0,3.0,45,0.00,,SKC,0.00,VWS V14.01,2013-03-22 00:24:00,
2013-03-21 20:29:00,30.1,11.8,30.07,WSW,237,2.0,3.0,46,0.00,,SKC,0.00,VWS V14.01,2013-03-22 00:29:00,
2013-03-21 20:34:00,30.1,11.8,30.08,WSW,248,0.0,4.0,46,0.00,,SKC,0.00,VWS V14.01,2013-03-22 00:34:00,
2013-03-21 20:39:00,30.0,12.2,30.08,WSW,248,2.0,4.0,47,0.00,,SKC,0.00,VWS V14.01,2013-03-22 00:39:00,
2013-03-21 20:44:00,29.8,12.0,30.08,WSW,248,3.0,4.0,47,0.00,,SKC,0.00,VWS V14.01,2013-03-22 00:44:00,
2013-03-21 20:49:00,29.7,12.4,30.08,WSW,249,0.0,4.0,48,0.00,,SKC,0.00,VWS V14.01,2013-03-22 00:49:00,
2013-03-21 20:54:00,29.5,12.2,30.08,WSW,249,1.0,4.0,48,0.00,,SKC,0.00,VWS V14.01,2013-03-22 00:54:00,
2013-03-21 20:59:00,29.5,12.2,30.08,WSW,249,0.0,4.0,48,0.00,,SKC,0.00,VWS V14.01,2013-03-22 00:59:00,
2013-03-21 21:04:00,29.5,12.2,30.08,WSW,249,2.0,3.0,48,0.00,,SKC,0.00,VWS V14.01,2013-03-22 01:04:00,
2013-03-21 21:09:00,29.4,12.6,30.08,WSW,243,1.0,4.0,49,0.00,,SKC,0.00,VWS V14.01,2013-03-22 01:09:00,
2013-03-21 21:14:00,29.4,12.6,30.08,WSW,238,0.0,4.0,49,0.00,,SKC,0.00,VWS V14.01,2013-03-22 01:14:00,
2013-03-21 21:19:00,29.3,13.0,30.08,WSW,253,0.0,5.0,50,0.00,,SKC,0.00,VWS V14.01,2013-03-22 01:19:00,
2013-03-21 21:24:00,29.3,13.0,30.08,WSW,253,0.0,5.0,50,0.00,,SKC,0.00,VWS V14.01,2013-03-22 01:24:00,
2013-03-21 21:29:00,29.1,12.8,30.08,West,263,0.0,5.0,50,0.00,,SKC,0.00,VWS V14.01,2013-03-22 01:29:00,
2013-03-21 21:34:00,29.1,12.8,30.08,WSW,253,0.0,3.0,50,0.00,,SKC,0.00,VWS V14.01,2013-03-22 01:34:00,
2013-03-21 21:39:00,29.1,12.8,30.08,West,270,0.0,4.0,50,0.00,,SKC,0.00,VWS V14.01,2013-03-22 01:39:00,
2013-03-21 21:44:00,29.0,13.1,30.08,West,271,0.0,4.0,51,0.00,,SKC,0.00,VWS V14.01,2013-03-22 01:44:00,
2013-03-21 21:50:00,28.8,13.0,30.08,West,271,0.0,4.0,51,0.00,,SKC,0.00,VWS V14.01,2013-03-22 01:50:00,
2013-03-21 21:54:00,28.7,13.3,30.08,West,266,2.0,4.0,52,0.00,,SKC,0.00,VWS V14.01,2013-03-22 01:54:00,
2013-03-21 22:00:00,28.7,12.9,30.08,West,262,0.0,4.0,51,0.00,,SKC,0.00,VWS V14.01,2013-03-22 02:00:00,
2013-03-21 22:05:00,28.5,12.7,30.08,West,262,0.0,2.0,51,0.00,,SKC,0.00,VWS V14.01,2013-03-22 02:05:00,
2013-03-21 22:10:00,28.4,13.0,30.08,West,260,2.0,2.0,52,0.00,,SKC,0.00,VWS V14.01,2013-03-22 02:10:00,
2013-03-21 22:15:00,28.2,12.9,30.08,WSW,257,0.0,2.0,52,0.00,,SKC,0.00,VWS V14.01,2013-03-22 02:15:00,
2013-03-21 22:20:00,28.2,12.9,30.09,WSW,257,0.0,2.0,52,0.00,,SKC,0.00,VWS V14.01,2013-03-22 02:20:00,
2013-03-21 22:25:00,28.4,13.0,30.09,WSW,250,0.0,2.0,52,0.00,,SKC,0.00,VWS V14.01,2013-03-22 02:25:00,
2013-03-21 22:30:00,28.2,12.9,30.09,WSW,250,0.0,2.0,52,0.00,,SKC,0.00,VWS V14.01,2013-03-22 02:30:00,
2013-03-21 22:35:00,28.2,12.9,30.09,WSW,250,0.0,1.0,52,0.00,,SKC,0.00,VWS V14.01,2013-03-22 02:35:00,
2013-03-21 22:40:00,28.1,12.8,30.09,WSW,250,0.0,1.0,52,0.00,,SKC,0.00,VWS V14.01,2013-03-22 02:40:00,
2013-03-21 22:45:00,27.9,12.6,30.09,WSW,250,0.0,1.0,52,0.00,,SKC,0.00,VWS V14.01,2013-03-22 02:45:00,
2013-03-21 22:50:00,27.9,12.6,30.09,WSW,250,0.0,1.0,52,0.00,,SKC,0.00,VWS V14.01,2013-03-22 02:50:00,
2013-03-21 22:55:00,27.8,12.5,30.09,WSW,250,0.0,1.0,52,0.00,,SKC,0.00,VWS V14.01,2013-03-22 02:55:00,
2013-03-21 23:01:00,27.9,12.6,30.09,WSW,250,0.0,1.0,52,0.00,,SKC,0.00,VWS V14.01,2013-03-22 03:01:00,
2013-03-21 23:06:00,27.8,12.5,30.09,SW,226,0.0,3.0,52,0.00,,SKC,0.00,VWS V14.01,2013-03-22 03:06:00,
2013-03-21 23:11:00,27.6,12.3,30.09,SW,227,0.0,3.0,52,0.00,,SKC,0.00,VWS V14.01,2013-03-22 03:11:00,
2013-03-21 23:16:00,27.6,12.3,30.08,SW,226,0.0,3.0,52,0.00,,SKC,0.00,VWS V14.01,2013-03-22 03:16:00,
2013-03-21 23:21:00,27.5,12.6,30.08,SW,226,0.0,3.0,53,0.00,,SKC,0.00,VWS V14.01,2013-03-22 03:21:00,
2013-03-21 23:27:00,27.5,12.6,30.08,SW,226,1.0,3.0,53,0.00,,SKC,0.00,VWS V14.01,2013-03-22 03:27:00,
2013-03-21 23:32:00,27.5,12.6,30.09,SW,226,0.0,1.0,53,0.00,,SKC,0.00,VWS V14.01,2013-03-22 03:32:00,
2013-03-21 23:37:00,27.3,12.9,30.09,SW,226,0.0,2.0,54,0.00,,SKC,0.00,VWS V14.01,2013-03-22 03:37:00,
2013-03-21 23:42:00,27.3,12.9,30.09,SW,226,0.0,2.0,54,0.00,,SKC,0.00,VWS V14.01,2013-03-22 03:42:00,
2013-03-21 23:47:00,27.3,12.9,30.08,SW,226,1.0,2.0,54,0.00,,SKC,0.00,VWS V14.01,2013-03-22 03:47:00,
2013-03-21 23:52:00,27.3,12.9,30.08,SW,226,0.0,2.0,54,0.00,,SKC,0.00,VWS V14.01,2013-03-22 03:52:00,
2013-03-21 23:57:00,27.2,13.2,30.08,SW,226,1.0,2.0,55,0.00,,SKC,0.00,VWS V14.01,2013-03-22 03:57:00,